TimeCST,TemperatureF,Dew PointF,Humidity,Sea Level PressureIn,VisibilityMPH,Wind Direction,Wind SpeedMPH,Gust SpeedMPH,PrecipitationIn,Events,Conditions,WindDirDegrees,DateUTC
12:52 AM,28.0,23.0,81,30.10,3.0,North,11.5,-,N/A,,Overcast,350,2013-02-25 06:52:00
1:52 AM,28.0,23.0,81,30.10,3.0,North,15.0,-,N/A,,Overcast,360,2013-02-25 07:52:00
2:52 AM,27.0,23.0,85,30.09,3.0,North,11.5,-,N/A,,Overcast,350,2013-02-25 08:52:00
3:52 AM,26.6,23.0,86,30.07,3.0,North,11.5,-,N/A,,Overcast,360,2013-02-25 09:52:00
4:52 AM,27.0,23.0,85,30.10,2.5,NNW,10.4,-,0.00,,Overcast,340,2013-02-25 10:52:00
5:52 AM,27.0,23.0,85,30.10,2.5,North,9.2,-,N/A,,Overcast,360,2013-02-25 11:52:00
6:52 AM,26.1,23.0,88,30.09,1.5,North,10.4,-,N/A,,Overcast,360,2013-02-25 12:52:00
7:03 AM,26.6,23.0,86,30.06,1.5,North,10.4,-,N/A,,Overcast,350,2013-02-25 13:03:00
7:52 AM,26.1,23.0,88,30.12,1.0,North,12.7,-,N/A,,Overcast,360,2013-02-25 13:52:00
8:52 AM,26.1,23.0,88,30.13,1.0,North,10.4,-,N/A,,Overcast,350,2013-02-25 14:52:00
9:14 AM,26.6,23.0,86,30.10,1.2,North,9.2,-,N/A,,Mostly Cloudy,360,2013-02-25 15:14:00
9:40 AM,26.6,23.0,86,30.09,1.5,North,11.5,-,N/A,,Overcast,350,2013-02-25 15:40:00
9:52 AM,27.0,23.0,85,30.12,1.2,NNW,12.7,-,N/A,,Mostly Cloudy,340,2013-02-25 15:52:00
10:52 AM,28.0,24.1,85,30.12,1.5,North,11.5,-,N/A,,Overcast,350,2013-02-25 16:52:00
11:52 AM,30.0,25.0,82,30.10,1.8,North,11.5,-,N/A,,Haze,350,2013-02-25 17:52:00
11:59 AM,30.2,24.8,80,30.06,1.8,North,11.5,-,N/A,,Haze,350,2013-02-25 17:59:00
12:10 PM,30.2,24.8,80,30.06,2.0,North,13.8,-,N/A,,Haze,350,2013-02-25 18:10:00
12:52 PM,32.0,26.1,79,30.07,3.0,North,9.2,-,N/A,,Haze,360,2013-02-25 18:52:00
1:52 PM,33.1,27.0,78,30.05,3.0,North,8.1,-,N/A,,Haze,360,2013-02-25 19:52:00
2:52 PM,34.0,26.1,73,30.03,6.0,North,15.0,-,N/A,,Haze,10,2013-02-25 20:52:00
3:52 PM,34.0,26.1,73,30.02,6.0,NNE,12.7,-,N/A,,Haze,20,2013-02-25 21:52:00
4:52 PM,33.1,27.0,78,30.01,5.0,North,13.8,-,N/A,,Haze,360,2013-02-25 22:52:00
5:52 PM,32.0,26.1,79,30.02,5.0,NNE,11.5,-,N/A,,Haze,20,2013-02-25 23:52:00
6:52 PM,30.0,25.0,82,30.00,6.0,North,15.0,-,N/A,,Haze,360,2013-02-26 00:52:00
7:40 PM,28.4,24.8,86,29.97,6.0,North,12.7,-,N/A,,Overcast,10,2013-02-26 01:40:00
7:52 PM,28.9,25.0,85,30.00,5.0,North,11.5,-,N/A,,Overcast,10,2013-02-26 01:52:00
8:15 PM,28.4,24.8,86,29.95,5.0,North,13.8,-,N/A,,Overcast,10,2013-02-26 02:15:00
8:52 PM,28.9,25.0,85,29.97,4.0,NNE,15.0,-,N/A,,Overcast,20,2013-02-26 02:52:00
9:52 PM,28.0,25.0,88,29.97,3.0,North,16.1,21.9,N/A,,Overcast,10,2013-02-26 03:52:00
10:52 PM,28.0,25.0,88,29.99,3.0,NNE,9.2,-,N/A,,Overcast,20,2013-02-26 04:52:00
11:15 PM,28.4,24.8,86,29.94,2.5,North,11.5,-,N/A,,Overcast,360,2013-02-26 05:15:00
11:52 PM,28.0,25.0,88,29.98,2.5,North,10.4,-,N/A,,Overcast,360,2013-02-26 05:52:00